Location: Dannhausen
(51.8650°N, 10.1026°E)
Time: 16:34:27
(UTC+00:00)

MOS 1 Rocket - Pass Details

Date: 09 April 2020
Orbit: 614 x 830 km, 97.4° (Epoch: 29 May)

Event Time Altitude Azimuth Distance (km) Brightness Sun altitude
Rises 19:13:43 0° 16° (NNE) 3,342 7.0 -10.4°
Reaches altitude 10° 19:16:08 10° 22° (NNE) 2,424 6.2 -10.7°
Maximum altitude 19:21:24 50° 98° (E) 1,046 3.8 -11.4°
Drops below altitude 10° 19:26:40 10° 173° (S) 2,430 5.7 -12.1°
Sets 19:29:05 0° 179° (S) 3,351 6.5 -12.4°
